Preview of NWS' New Version of Forecast
This preview is not operational and should not be used for support decisions.

Regional Weather Roundup (RWR)

Issued by Philadelphia/Mt Holly (PHI)

                            
000
ASUS41 KPHI 181812
RWRPHI

REGIONAL WEATHER ROUNDUP
NATIONAL WEATHER SERVICE MOUNT HOLLY NJ
100 PM EST FRI JAN 18 2019

NOTE:  "FAIR" INDICATES FEW OR NO CLOUDS BELOW 12,000 FEET WITH NO
SIGNIFICANT WEATHER AND/OR OBSTRUCTIONS TO VISIBILITY.

 * = STATION DOES NOT REPORT PRECIPITATION (E.G. RAIN, SNOW, ETC.) 
        OR FOG.

NJZ015>026-181900-
SOUTHERN NEW JERSEY
  
CITY           SKY/WX    TMP DP  RH WIND       PRES   REMARKS
POMONA         CLOUDY    38  38 100 CALM      30.07F                  
6HR MIN TEMP:  32; 6HR MAX TEMP:  38; 6HR PCP:  0.02;                

WILDWOOD*      CLOUDY    38  37  97 W7        30.08F FOG     WCI  33  
MILLVILLE      CLOUDY    37  35  92 W3        30.07F                  
WRIGHTSTOWN    CLOUDY    36  36 100 CALM      30.04F FOG              
MOUNT HOLLY    CLOUDY    34  32  92 CALM      30.08F FOG              
TRENTON        CLOUDY    33  31  92 CALM      30.06F FOG              
6HR MIN TEMP:  29; 6HR MAX TEMP:  34; 6HR PCP:  0.06;                


$$
NJZ001>014-181900-
NORTHERN NEW JERSEY
  
CITY           SKY/WX    TMP DP  RH WIND       PRES   REMARKS
SUSSEX         MIX PCPN  31  26  82 SW6       30.04F WCI  25          
ANDOVER*         N/A     31  26  82 CALM      30.04F                  
MORRISTOWN     CLOUDY    34  30  86 CALM      30.07F FOG              
NEWARK         CLOUDY    37  32  82 W3        30.07F                  
TETERBORO      CLOUDY    37  32  82 VRB7      30.06F FOG     WCI  32  
CALDWELL       CLOUDY    33  31  92 CALM      30.07F FOG              
SOMERVILLE     CLOUDY    33  29  85 CALM      30.06F                  
ALLAIRE*       CLOUDY    37  36  93 NW3       30.07F                  
TOMS RIVER*    LGT RAIN  37  36  93 CALM      30.07F FOG              

$$
PAZ043-044-047-054-055-060>062-066>071-181900-
EASTERN PENNSYLVANIA
  
CITY           SKY/WX    TMP DP  RH WIND       PRES   REMARKS
PHILADELPHIA   CLOUDY    35  32  88 CALM      30.08F FOG              
6HR MIN TEMP:  30; 6HR MAX TEMP:  35; 6HR PCP:  0.01;                

NORTH PHILA    CLOUDY    35  32  88 CALM      30.09F FOG              
BLUE BELL*     CLOUDY    32  32 100 CALM      30.08F                  
DOYLESTOWN     CLOUDY    32  29  88 CALM      30.05F FOG              
QUAKERTOWN*    CLOUDY    32  32 100 CALM      30.06  FOG              
PERKASIE*      FOG       32  32 100 W3        30.06F VSB 1            
POTTSTOWN      CLOUDY    30  30 100 CALM      30.08F FOG              
LANCASTER      CLOUDY    34  31  88 W7        30.06F FOG     WCI  28  
COATESVILLE    CLOUDY    34  32  93 VRB6      30.07F FOG     WCI  29  
READING        CLOUDY    33  31  92 CALM      30.06F                  
6HR MIN TEMP:  28; 6HR MAX TEMP:  33;                                

ALLENTOWN      CLOUDY    33  27  78 W3        30.06F HAZE             
6HR MIN TEMP:  28; 6HR MAX TEMP:  33; 6HR PCP: TRACE;                

MOUNT POCONO   CLOUDY    29  28  96 SW10      29.96F WCI  20          
6HR MIN TEMP:  22; 6HR MAX TEMP:  30; 6HR PCP: TRACE;                

HAZLETON       CLOUDY   N/A N/A N/A SW3       30.00F                  
LEHIGHTON      CLOUDY    32  30  93 CALM      30.06F                  
WILKES BARRE   CLOUDY    32  29  88 SW7       30.00F FOG     WCI  26  

$$
DEZALL-MDZ008-012-015-019-020-181900-
DELAWARE AND EASTERN MARYLAND
  
CITY           SKY/WX    TMP DP  RH WIND       PRES   REMARKS
WILMINGTON     CLOUDY    37  34  89 W6        30.09F FOG     WCI  32  
6HR MIN TEMP:  31; 6HR MAX TEMP:  37; 6HR PCP: TRACE;                

DOVER          CLOUDY    39  37  93 SW5       30.07F                  
GEORGETOWN     CLOUDY    45  37  73 NW7       30.08F                  
6HR MIN TEMP:  38; 6HR MAX TEMP:  45;                                

EASTON         CLOUDY    41  36  81 W7        30.13F                  
ABERDEEN       CLOUDY    36  34  93 CALM      30.09  FOG              
PATUXENT       FAIR      43  38  82 NW7       30.09                   
OCEAN CITY     FAIR      47  37  68 N8        30.07F                  
WALLOPS ISLAND FAIR      50  35  56 NW8       30.07F                  
CAMBRIDGE      PTSUNNY   41  36  81 N8        30.09F                  
SALISBURY      FAIR      47  38  71 NW8       30.07F                  

$$
PAZ001-021-NYZ056-072-MDZ011-DCZ001-181900-
OTHER NEARBY LOCATIONS
  
CITY           SKY/WX    TMP DP  RH WIND       PRES   REMARKS
HARRISBURG     CLOUDY    31  28  89 CALM      30.07F FOG              
STATE COLLEGE  CLOUDY    32  30  93 SW6       30.02F FOG     WCI  26  
WILLIAMSPORT   CLOUDY    32  26  78 E3        30.04F                  
BINGHAMTON     CLOUDY    29  24  82 SW7       29.94F WCI  22          
NEW YORK CITY  CLOUDY    37  32  82 MISG      30.08                   
BALTIMORE      PTSUNNY   38  34  85 SW6       30.08F WCI  33          
WASHINGTON DC  CLOUDY    38  33  82 CALM      30.11F HAZE             

$$